Location: Centerville
(32.8776°N, 96.6203°W)
Time: 11:22:16
(UTC+00:00)

Nadezhda 4 Rocket - Pass Details

Date: 17 June 2021
Orbit: 950 x 991 km, 82.9° (Epoch: 30 July)

Event Time Altitude Azimuth Distance (km) Brightness Sun altitude
Exits shadow 08:01:48 81° 292° (WNW) 973 3.8 -29.4°
Drops below altitude 10° 08:07:52 10° 4° (N) 2,686 7.1 -28.9°
Sets 08:10:21 0° 5° (N) 3,632 8.0 -28.6°
